Regional Weather Roundup
Issued by NWS

Home | Current Version | Previous Version | Graphics & Text | Print | Product List | Glossary On
Versions: 1 2 3 4 5 6 7 8 9 10 11 12 13 14 15 16 17 18 19 20 21 22 23 24 25 26 27
000
ASUS45 KBOU 042207
RWRCO

WEATHER ROUNDUP FOR COLORADO
NATIONAL WEATHER SERVICE DENVER/BOULDER CO
300 PM MST SUN DEC 04 2016

NOTE: "FAIR" INDICATES FEW OR NO CLOUDS BELOW 12000 FEET WITH NO
SIGNIFICANT WEATHER AND/OR OBSTRUCTIONS TO VISIBILITY.

COZ001>005-013-030-031-042300-
...NORTHWEST COLORADO...

CITY           SKY/WX    TMP DP  RH WIND       PRES   REMARKS
CRAIG          FAIR      37  13  37 NE6       29.99F
HAYDEN         PTSUNNY   30  12  47 E6        30.00F WCI  24
MEEKER         FAIR      32  20  61 CALM      30.00F
MOUNT WERNER   NOT AVBL
STEAMBOAT SPGS CLOUDY    27  14  58 CALM      30.01R
WALDEN           N/A     30  14  51 S10       29.96F WCI  21
$$

COZ006>008-011-042300-
...WEST CENTRAL VALLEYS...

CITY           SKY/WX    TMP DP  RH WIND       PRES   REMARKS
GRAND JUNCTION FAIR      40  16  37 CALM      30.09F
MONTROSE       FAIR      40  11  30 CALM      30.09F
EAGLE          SUNNY     37   9  30 CALM      30.04F
RIFLE          FAIR      37  12  35 CALM      30.08F
DELTA          FAIR      42  13  30 CALM      30.10F
NUCLA          FAIR      41  12  30 N5        30.12F
$$

COZ017>023-064>068-042300-
...SOUTHWEST COLORADO...

CITY           SKY/WX    TMP DP  RH WIND       PRES   REMARKS
DURANGO        FAIR      39  20  46 W10       30.08S
CORTEZ         FAIR      39  18  42 CALM      30.11F
PAGOSA SPRINGS FAIR      40  12  32 S3        30.09S
TELLURIDE      FAIR      39  10  30 W3        30.08F
WOLF CREEK PAS FAIR      27  10  50 SW10      30.17R WCI  17
$$

COZ009-010-012-014-032>034-037-058>063-042300-
...CENTRAL COLORADO...

CITY           SKY/WX    TMP DP  RH WIND       PRES   REMARKS
ASPEN          FAIR      35  10  35 N5        30.02S WCI  31
BUENA VISTA    FAIR      45  11  25 NW16G26   29.94S
COPPER MTN     NOT AVBL
BERTHOUD PASS  FAIR      14   3  62 NW20      29.98S WCI  -3
COTTONWOOD PAS FAIR      37   9  30 W26G48    29.94F
GUNNISON       FAIR      28  10  46 W6        30.08F WCI  22
KREMMLING      FAIR      37  14  38 E7        30.00F
LEADVILLE      FAIR      33  11  39 NW13G30   29.99S WCI  24
MONARCH PASS   FAIR      23  10  58 W39       30.14S WCI   3
SALIDA         FAIR      45  10  23 SW22G35   30.00S
SUNLIGHT       FAIR      23  18  80 SW17G29   30.06F HAZE    WCI   9
WILKERSON PASS FAIR      32   9  37 W16G37    29.97S WCI  21
$$

COZ069>075-042300-
...SAN LUIS VALLEY/SANGRE DE CRISTO MOUNTAINS...

CITY           SKY/WX    TMP DP  RH WIND       PRES   REMARKS
ALAMOSA        FAIR      35  12  38 CALM      30.04F
LA VETA PASS   FAIR      34   9  35 NE21G32   30.01F WCI  22
SAGUACHE       FAIR      34   1  25 S8        30.07S WCI  27
$$

COZ035-036-038>040-042300-
...NORTHERN COLORADO FRONT RANGE...

CITY           SKY/WX    TMP DP  RH WIND       PRES   REMARKS
DENVER INTL AP FAIR      53  13  20 CALM      29.82F
DMNS CITY PARK   N/A     55  10  17 E7        29.80F
AURORA         MOSUNNY   52  10  18 CALM      29.83F
FRONT RANGE AP MOSUNNY   54  16  22 NW8       29.84F
ERIE MUNI ARPT FAIR      51  14  22 E6        29.81F
BOULDER MUN AP FAIR      54  16  22 E9        29.79F
CENTENNIAL     FAIR      52   6  15 SE7       29.83F
BROOMFIELD     NOT AVBL
FORT COLLINS   FAIR      39  12  33 CALM      29.82F
LONGMONT       FAIR      58  15  18 W14       29.81F
$$

COZ041-046-047-076>085-087-088-042300-
...PIKES PEAK/PALMER DIVIDE AND SOUTHERN FOOTHILLS...

CITY           SKY/WX    TMP DP  RH WIND       PRES   REMARKS
COLO. SPRINGS  FAIR      44   9  23 SE12      29.89F
A. F. ACADEMY  FAIR      45   8  22 S9        29.87F
SCHRIEVER AFB  NOT AVBL
ELLICOTT       LGT RAIN N/A N/A N/A S7        29.87F
FALCON         FAIR      44   4  19 S5        29.89F
FORT CARSON    FAIR      45  10  24 SE9       29.86F
LIMON          FAIR      47   9  21 S15       29.86F
MONUMENT HILL  FAIR      43   9  24 S9        29.88F
TRINIDAD       FAIR      54   8  16 SE7       29.91F
$$

COZ042>045-048>051-090-091-042300-
...NORTHEAST COLORADO...

CITY           SKY/WX    TMP DP  RH WIND       PRES   REMARKS
GREELEY ARPT   FAIR      40  14  34 CALM      29.83F
AKRON          FAIR      51   6  16 SW12      29.82F
BURLINGTON     FAIR      49   7  18 SW17      29.89F
WRAY           NOT AVBL
STERLING       FAIR      52  14  22 S6        29.80F
HOLYOKE        FAIR      54   9  16 SW13      29.83F
FORT MORGAN    FAIR      52   8  17 SW7       29.83F
$$

COZ086-089-092>099-042300-
...SOUTHEAST COLORADO...

CITY           SKY/WX    TMP DP  RH WIND       PRES   REMARKS
PUEBLO         FAIR      49  14  24 E9        29.87F
LA JUNTA       FAIR      54  12  18 MISG      29.88F
LAMAR          FAIR      54  13  19 S10       29.89F
SPRINGFIELD      N/A     48  16  27 S18       29.94F
$$




USA.gov is the U.S. government's official web portal to all federal, state and local government web resources and services.